Location: Batang Balui
(2.7000°N, 113.7833°E)
Time: 01:37:13
(UTC+00:00)

FO-29 - Pass Details

Date: 01 April 2023
Orbit: 799 x 1322 km, 98.5° (Epoch: 29 May)

Event Time Altitude Azimuth Distance (km) Brightness Sun altitude
Rises 21:54:56 0° 351° (N) 3,976 12.7 -8.2°
Reaches altitude 10° 21:58:05 10° 339° (NNW) 2,932 11.9 -7.4°
Maximum altitude 22:03:20 26° 286° (WNW) 1,879 10.5 -6.1°
Drops below altitude 10° 22:08:09 10° 232° (SW) 2,651 11.3 -4.9°
Sets 22:10:52 0° 219° (SW) 3,523 12.0 -4.2°
